UB9HDM-13 Weather Reports


time (UTC)temp
F
wind
direction
speed
knots
gust
knots
rain 1hr
in
rain 24hr
in
rain mn
in
humidity
%
barometer
mb
20260508070330 80 0.0 0.0 0.00 0.04 0.00 35 997.4
20260508060334 76 0.0 0.0 0.00 0.04 0.00 40 997.6
20260508050333 76 0.0 0.0 0.00 0.04 0.00 45 997.8
20260508040336 70 0.0 0.0 0.00 0.04 0.00 56 997.9
20260508030321 66 0.0 0.0 0.00 0.04 0.00 65 998.2
20260508020352 61 0.0 0.0 0.00 0.04 0.00 73 998.6
20260508010332 58 0.0 0.0 0.00 0.04 0.00 79 998.5
20260508000350 56 0.0 0.0 0.00 0.04 0.00 83 998.3
20260507220330 54 0.0 0.0 0.00 0.04 0.00 85 998.3
20260507210357 55 0.0 0.0 0.00 0.04 0.00 82 998.4
20260507200344 56 0.0 0.0 0.00 0.04 0.00 80 998.5
20260507190331 58 0.0 0.0 0.00 0.04 0.00 78 999.1
20260507180336 59 0.0 0.0 0.00 0.04 0.00 76 999.3
20260507170335 60 0.0 0.0 0.00 0.04 0.00 74 999.7
20260507160330 61 0.0 0.0 0.00 0.08 0.01 70 1000.0
20260507150345 61 0.0 0.0 0.00 0.08 0.01 68 1000.3
20260507130327 69 0.0 0.0 0.00 0.08 0.01 55 1000.6
20260507120347 71 0.0 0.0 0.00 0.08 0.01 50 1000.9
20260507110351 72 0.0 0.0 0.00 0.08 0.01 47 1000.9
20260507100335 73 0.0 0.0 0.00 0.08 0.01 45 1001.2
20260507090348 73 0.0 0.0 0.00 0.08 0.01 46 1001.6
20260507080326 72 0.0 0.0 0.04 0.08 0.01 49 1001.9